Location: Vinland
(47.7731°N, 122.6974°W)
Time: 05:34:40
(UTC+00:00)

Vanguard 2 - Pass Details

Date: 18 April 2024
Orbit: 552 x 2914 km, 32.9° (Epoch: 25 May)

Event Time Altitude Azimuth Distance (km) Brightness Sun altitude
Exits shadow 08:53:46 24° 146° (SE) 4,521 11.0 -30.4°
Maximum altitude 08:54:39 24° 142° (SE) 4,538 11.0 -30.3°
Drops below altitude 10° 09:06:56 10° 98° (E) 5,711 12.0 -29.8°
Sets 09:12:30 0° 86° (E) 6,605 12.5 -29.6°
